• Join FlightAware (Why Join?)
  • Login
  • US Flag GB Flag 
02:57 EST


 

Airport Tracker/Info


-or-


 

Live Flight TrackerFlight Track Log ✈ SWA767 ✈ 20-Apr-2013 ✈ KAUS - KELP

Flight Track Log - Related Links

Times and Time Zones

All times are in EDT time to prevent confusion due to time zone crossing. See the SWA767 flight status page for this flight to view local times or setup timezone preferences in your user account.

Time Position Orientation Groundspeed Altitude Reporting Facility
EDT Latitude Longitude Course Direction KTS MPH feet Rate Location/Type
10:13 30.1722 -97.8117 314° West 258 297 9,400  Level Houston Center
10:14 30.2089 -97.9042 295° West 316 364 12,000 2,293 Climbing Houston Center
10:15 30.2383 -98.0192 287° West 345 397 14,100 2,613 Climbing Houston Center
10:16 30.4167 -97.9282 270° West  Level FlightAware Approximate
10:16 30.2600 -98.1228 284° West 336 387 17,400  Level Houston Center
10:17 30.4215 -98.0409 278° West  Level FlightAware Approximate
10:17 30.2858 -98.2422 284° West 354 407 20,000  Level Houston Center
10:18 30.3097 -98.3547 284° West 365 420 22,600 2,683 Climbing Houston Center
10:19 30.3358 -98.4736 284° West 375 432 25,500 2,177 Climbing Houston Center
10:20 30.3592 -98.5919 283° West 375 432 27,100 1,887 Climbing Houston Center
10:21 30.3867 -98.7167 284° West 392 451 29,400 2,419 Climbing Houston Center
10:22 30.4125 -98.8367 284° West 380 437 32,100 2,293 Climbing Houston Center
10:23 30.4367 -98.9525 284° West 368 423 34,100 1,805 Climbing Houston Center
10:24 30.4589 -99.0644 283° West 356 410 35,800 871 Climbing Houston Center
10:25 30.4833 -99.1767 284° West 361 415 35,900 97 Climbing Houston Center
10:26 30.5117 -99.3117 284° West 361 415 36,000 48 Climbing Houston Center
10:27 30.5347 -99.4242 283° West 359 413 36,000  Level Houston Center
10:28 30.5561 -99.5353 283° West 356 410 36,000  Level Houston Center
10:29 30.5806 -99.6447 285° West 354 407 36,000  Level Houston Center
10:30 30.6017 -99.7550 283° West 351 404 36,000  Level Houston Center
10:31 30.6219 -99.8642 282° West 351 404 36,000  Level Houston Center
10:32 30.6486 -99.9953 283° West 350 403 36,000  Level Houston Center
10:33 30.6708 -100.1044 283° West 350 403 36,000 -48 Level Houston Center
10:34 30.6928 -100.2156 283° West 352 405 35,900 -48 Descending Houston Center
10:35 30.7142 -100.3244 283° West 349 402 35,900 48 Level Houston Center
10:36 30.7364 -100.4353 283° West 353 406 36,000 48 Climbing Houston Center
10:37 30.7569 -100.5433 283° West 347 399 36,000 -48 Level Houston Center
10:38 30.7825 -100.6747 283° West 347 399 35,900  Descending Houston Center
10:39 30.8033 -100.7844 282° West 347 399 36,000 48 Climbing Houston Center
10:40 30.8244 -100.8933 283° West 349 402 36,000  Level Houston Center
10:41 30.8456 -101.0011 283° West 345 397 36,000  Level Houston Center
10:43 30.8661 -101.1097 282° West 345 397 36,000  Level Houston Center
10:44 30.8878 -101.2181 283° West 344 396 36,000  Level Houston Center
10:45 30.9119 -101.3475 282° West 341 392 36,000  Level Houston Center
10:45 30.9306 -101.4500 282° West 344 396 36,000  Level Albuquerque Center
10:46 30.9506 -101.5575 282° West 343 395 36,000  Level Albuquerque Center
10:48 30.9706 -101.6656 282° West 342 394 36,000  Level Albuquerque Center
10:49 30.9903 -101.7744 282° West 342 394 36,000  Level Albuquerque Center
10:50 31.0100 -101.8817 282° West 340 391 36,000  Level Albuquerque Center
10:51 31.0294 -101.9983 281° West 356 410 36,000  Level Albuquerque Center
10:52 31.0506 -102.1056 283° West 344 396 36,000  Level Albuquerque Center
10:53 31.0703 -102.2136 282° West 341 392 36,000  Level Albuquerque Center
10:54 31.0894 -102.3231 282° West 344 396 36,000  Level Albuquerque Center
10:55 31.1092 -102.4319 282° West 343 395 36,000  Level Albuquerque Center
10:56 31.1322 -102.5636 282° West 341 392 36,000  Level Albuquerque Center
10:57 31.1514 -102.6703 282° West 336 387 36,000  Level Albuquerque Center
10:58 31.1708 -102.7794 282° West 341 392 36,000  Level Albuquerque Center
10:59 31.1897 -102.8881 282° West 342 394 36,000  Level Albuquerque Center
11:00 31.2083 -102.9978 281° West 343 395 36,000  Level Albuquerque Center
11:01 31.2275 -103.1056 282° West 341 392 36,000  Level Albuquerque Center
11:02 31.2458 -103.2150 281° West 343 395 36,000  Level Albuquerque Center
11:03 31.2639 -103.3222 281° West 340 391 36,000  Level Albuquerque Center
11:04 31.2844 -103.4519 281° West 339 390 36,000  Level Albuquerque Center
11:05 31.3042 -103.5611 282° West 342 394 36,000  Level Albuquerque Center
11:06 31.3211 -103.6689 280° West 339 390 36,000  Level Albuquerque Center
11:07 31.3406 -103.7772 282° West 341 392 36,000  Level Albuquerque Center
11:08 31.3614 -103.8997 281° West 344 396 36,000  Level Albuquerque Center
11:09 31.3803 -104.0097 281° West 346 398 36,000  Level Albuquerque Center
11:10 31.3975 -104.1183 281° West 343 395 36,000  Level Albuquerque Center
11:11 31.4172 -104.2283 282° West 346 398 36,000  Level Albuquerque Center
11:12 31.4333 -104.3381 280° West 344 396 36,000 -48 Level Albuquerque Center
11:13 31.4522 -104.4472 281° West 344 396 35,900  Descending Albuquerque Center
11:14 31.4650 -104.5803 276° West 345 397 36,000 48 Climbing Albuquerque Center
11:15 31.4775 -104.6908 278° West 345 397 36,000  Level Albuquerque Center
11:16 31.4897 -104.8031 277° West 347 399 36,000 -774 Level Albuquerque Center
11:17 31.5003 -104.9131 276° West 344 396 34,400 -2,419 Descending Albuquerque Center
11:18 31.5122 -105.0242 277° West 345 397 31,000 -3,097 Descending Albuquerque Center
11:19 31.5258 -105.1558 277° West 339 390 28,000 -2,613 Descending Albuquerque Center
11:20 31.5361 -105.2583 277° West 324 373 25,600 -2,468 Descending Albuquerque Center
11:22 31.5453 -105.3694 276° West 342 394 22,900 -2,602 Descending Albuquerque Center
11:22 31.5542 -105.4664 276° West 327 376 20,700 -2,411 Descending Albuquerque Center
11:23 31.5644 -105.5661 277° West 303 349 18,400 -2,231 Descending Albuquerque Center
11:24 31.5742 -105.6636 277° West 306 352 16,200 -2,243 Descending Albuquerque Center
11:25 31.5828 -105.7561 276° West 306 352 14,100 -2,368 Descending Albuquerque Center
11:26 31.5869 -105.7878 279° West 306 352 13,200 -2,400 Descending Albuquerque Center
11:26 31.6114 -105.8514 294° West 317 365 11,700 -2,226 Descending Albuquerque Center
11:27 31.6269 -105.8786 304° West 316 364 10,900 -1,475 Descending Albuquerque Center
11:27 31.6547 -105.9353 300° West 305 351 10,200 -1,082 Descending Albuquerque Center
11:28 31.6681 -105.9600 302° West 289 333 9,800 -1,377 Descending Albuquerque Center
11:28 31.6936 -106.0078 302° West 256 295 8,800 -1,548 Descending Albuquerque Center
11:29 31.7067 -106.0317 303° West 263 303 8,200 -1,600 Descending Albuquerque Center
11:29 31.7356 -106.0847 303° West 251 289 7,200 -1,258 Descending Albuquerque Center
11:30 31.7442 -106.1014 301° West 255 293 6,900 -984 Descending Albuquerque Center
11:30 31.7711 -106.1506 303° West 244 281 6,200 -968 Descending Albuquerque Center
11:31 31.7800 -106.1678 301° West 243 280 5,900 -400 Descending Albuquerque Center
11:31 31.7931 -106.2228 286° West 234 269 5,800 -581 Descending Albuquerque Center
11:32 31.7961 -106.2525 277° West 223 257 5,300 -689 Descending Albuquerque Center
11:32 31.7961 -106.2869 270° West 191 220 5,100 -484 Descending Albuquerque Center
11:33 31.7975 -106.3103 274° West 182 209 4,800 -590 Descending Albuquerque Center
11:33 31.7983 -106.3339 272° West 125 144 4,500 -677 Descending Albuquerque Center
11:34 31.8014 -106.3558 279° West 130 150 4,100 -774 Descending Albuquerque Center
11:36 31.8000 -106.3667 270° West  Level FlightAware Approximate
11:43 31.8072 -106.3764 270° West  Level Estimated
11:44 31.8072 -106.3764 270° West  Level Estimated
11:45 31.8072 -106.3764 270° West  Level Estimated
11:46 31.8072 -106.3764 270° West  Level Estimated